GFSMW_850_spd_087.txt.gz
Wind_Speed
16 18 18 16 14 13 14 15 14 13 14 15 26 30 38 44 43 40 39 42 40 36 36 32 28 33 27 26 26 21 21 17 15 14 11 10 11 13 13 14 15 15 15
17 19 20 19 17 15 15 17 16 16 18 18 32 40 46 46 43 42 41 35 41 40 38 30 28 31 27 24 21 20 17 14 17 14 11 9 9 14 17 16 16 18 16
21 22 23 21 18 18 17 19 20 21 22 22 29 35 42 41 39 35 33 32 39 37 35 31 32 31 25 25 20 19 18 16 16 15 7 7 8 9 13 17 18 17 19
21 23 24 23 21 19 18 19 22 22 24 28 32 37 44 48 45 42 39 44 41 37 37 32 32 29 21 22 20 17 16 13 12 12 19 14 8 4 5 10 15 18 21
20 25 25 24 22 21 21 20 24 23 26 27 31 37 43 46 47 43 42 43 46 41 36 28 26 27 28 21 21 18 20 15 14 12 10 11 13 15 15 17 15 17 19
19 23 24 23 23 22 21 23 26 27 28 30 30 33 36 46 45 43 44 48 44 35 34 28 30 25 23 21 24 22 20 21 17 19 16 16 15 13 17 18 20 22 24
19 23 26 27 26 26 24 26 28 29 30 30 31 33 35 45 45 50 49 50 42 37 35 30 25 25 25 21 25 26 22 22 22 23 20 20 22 20 21 21 28 23 22
17 24 27 27 27 28 26 29 30 31 31 33 32 34 36 44 47 41 46 49 48 42 34 30 28 26 23 25 25 24 23 23 24 26 27 26 26 27 28 27 26 27 28
17 24 27 28 28 29 28 28 31 30 33 34 36 35 35 38 49 51 50 50 49 47 37 29 30 26 26 27 26 27 27 26 27 28 28 29 29 29 31 32 31 31 28
18 22 28 29 28 27 27 27 28 29 31 33 33 36 37 35 38 46 52 49 52 48 41 40 33 31 29 29 28 27 29 29 31 30 32 30 30 31 31 32 34 36 40
16 24 27 29 28 26 27 28 28 29 28 34 35 37 38 36 36 36 40 49 53 48 47 40 43 34 31 31 30 31 32 31 32 32 33 34 33 32 31 35 37 35 38
12 21 24 28 29 29 29 29 29 30 32 30 31 38 37 38 39 39 36 37 46 47 44 41 35 34 34 34 34 35 35 35 35 35 33 34 34 34 35 38 35 32 38
5 14 20 27 29 30 30 30 30 31 31 31 33 32 35 39 41 44 44 40 38 43 41 41 41 38 35 35 36 36 36 37 37 36 36 35 38 40 39 35 32 33 36
3 9 17 23 27 29 30 31 30 32 34 34 34 35 36 37 38 39 41 42 41 41 42 44 40 39 37 36 36 34 34 35 37 38 42 39 40 41 35 33 32 33 34
6 4 12 19 24 28 30 32 31 32 33 33 33 36 37 33 32 33 34 36 40 39 38 39 37 35 34 36 35 33 34 35 36 39 35 35 36 35 32 32 34 34 34
11 5 6 12 18 24 29 32 33 33 33 35 37 32 32 30 33 33 34 34 35 36 35 36 35 34 34 35 34 33 31 32 35 36 36 34 36 33 35 34 35 33 28
11 11 8 8 13 20 23 28 31 32 35 33 31 30 30 30 31 30 29 30 32 32 34 33 32 30 28 32 33 30 31 32 32 31 32 31 30 31 30 26 23 20 18
12 13 7 8 8 12 19 22 25 29 34 34 32 32 31 29 29 29 29 29 29 30 31 32 33 33 32 32 34 32 30 26 28 29 27 24 23 21 17 13 11 12 11
10 9 12 12 10 8 14 21 23 26 29 31 32 32 32 30 30 31 30 26 32 37 35 33 33 33 32 30 28 25 23 22 22 21 18 15 12 10 9 9 8 9 9
9 12 12 14 12 12 13 18 21 23 27 26 25 25 26 26 26 28 38 42 38 34 33 30 28 26 21 21 23 21 18 16 16 14 12 10 9 9 9 7 6 7 9
11 13 11 8 6 6 12 18 18 22 22 20 19 22 24 27 34 39 36 35 32 27 25 24 20 17 15 15 13 11 11 10 11 11 10 9 7 5 4 3 6 7 10
11 12 15 10 6 4 8 9 14 25 32 35 36 32 31 33 32 28 26 24 24 25 24 22 20 17 15 13 13 14 12 12 10 9 8 6 3 2 3 5 9 10 11
8 9 10 7 7 5 8 16 22 24 22 24 27 25 25 23 23 24 24 22 22 23 22 21 20 19 18 17 16 14 12 9 6 4 1 0 4 7 9 9 9 10 10
6 7 5 7 1 1 6 13 17 18 20 24 26 27 26 26 25 23 20 19 17 18 21 21 21 21 20 17 15 12 8 5 3 2 2 5 6 6 8 9 11 11 14
5 5 6 8 7 7 9 11 16 19 24 26 25 24 22 22 22 20 19 17 17 15 18 19 21 19 18 15 12 9 7 4 4 7 8 6 3 1 3 6 7 7 9
7 8 13 15 12 13 15 14 14 18 21 23 24 24 23 23 24 24 26 19 17 17 17 16 14 15 15 13 8 5 4 5 7 4 3 3 4 4 5 6 7 8 10

GFSMW_850_spd_090.txt.gz
Wind_Speed
19 22 20 20 18 20 22 16 15 13 11 12 12 11 18 27 34 39 44 45 52 53 50 42 37 32 32 28 28 26 21 23 18 18 15 15 15 13 16 18 20 20 19
20 24 24 22 21 22 19 16 16 17 16 15 16 18 23 27 32 32 39 53 50 47 47 37 34 32 28 27 26 24 24 24 24 20 18 15 15 20 19 18 19 20 22
25 28 27 25 23 24 20 16 18 18 18 22 26 31 33 33 33 32 25 31 36 40 40 41 34 31 34 36 30 29 26 28 27 23 14 13 7 13 17 22 23 22 23
22 31 29 27 26 22 19 17 21 22 21 24 28 35 42 42 37 34 36 37 37 36 30 31 30 33 35 30 28 26 25 22 22 25 25 14 9 7 8 15 14 21 24
18 31 31 28 24 24 22 20 24 26 24 25 35 44 42 36 34 39 34 35 33 31 34 33 38 40 33 32 29 26 24 23 21 18 21 20 17 14 13 11 18 18 21
22 28 31 27 26 24 25 25 27 30 27 29 36 40 38 36 37 41 37 37 37 41 42 37 32 35 32 32 29 26 22 25 23 20 16 14 13 14 13 17 19 21 23
24 25 34 31 29 31 27 29 28 31 30 31 35 38 39 40 39 43 40 38 41 45 43 38 33 29 31 29 25 30 26 24 24 24 24 22 22 21 20 20 23 25 25
23 26 33 32 32 33 29 31 31 34 32 35 33 37 39 41 42 46 44 46 48 51 43 40 36 35 29 28 29 28 30 27 25 25 24 25 26 26 27 28 28 28 29
13 20 30 35 33 34 33 31 33 32 34 35 35 35 38 43 41 49 47 52 52 47 46 44 40 32 31 31 31 31 29 28 29 28 28 28 27 29 29 30 31 32 30
22 26 28 36 35 34 33 33 31 32 34 36 37 36 36 37 37 43 54 51 50 49 47 43 40 36 32 32 31 32 31 30 31 30 31 30 31 30 28 30 32 33 36
14 26 27 36 34 33 32 32 29 35 35 35 38 39 37 37 37 42 46 50 52 53 48 45 43 35 36 34 33 34 33 33 32 33 31 32 34 32 33 33 34 34 35
12 15 27 35 34 36 33 33 31 33 34 36 36 38 39 37 38 40 43 47 47 50 53 53 47 38 34 36 35 36 36 34 35 34 34 34 35 35 37 37 39 38 38
3 6 26 30 34 34 33 35 35 34 34 31 37 38 37 41 41 39 39 41 46 48 54 53 54 47 42 40 42 39 37 37 37 36 36 38 39 41 41 41 41 42 42
7 3 8 22 31 32 33 34 35 34 36 34 32 34 39 42 44 41 40 39 38 46 48 51 49 50 46 42 41 41 38 38 38 37 39 39 39 43 43 41 46 43 42
8 8 10 16 23 30 33 33 33 34 35 37 35 35 31 37 39 42 43 40 37 37 42 41 45 45 44 41 36 35 36 35 35 35 36 38 40 42 43 45 42 41 36
8 8 5 10 19 23 29 33 34 34 35 36 39 36 34 33 35 36 39 41 42 41 40 40 41 43 41 40 41 38 36 34 34 35 36 39 43 44 42 38 35 33 32
6 6 6 6 8 17 23 29 32 33 34 36 36 36 37 39 38 37 38 39 41 42 43 42 42 42 41 43 39 37 38 40 40 42 42 43 42 34 33 32 27 23 18
5 7 8 9 6 7 16 24 27 32 36 37 38 35 36 37 39 38 39 40 39 40 39 41 41 39 39 38 37 36 38 38 42 45 38 33 31 27 23 18 15 9 7
8 7 7 11 12 11 9 17 25 28 32 37 38 36 36 35 35 36 37 36 35 35 38 41 40 40 40 39 36 34 35 39 32 30 25 22 18 14 10 8 8 7 6
13 12 9 10 10 6 13 13 23 27 28 30 32 32 32 33 33 32 32 34 39 41 39 39 37 37 36 36 36 37 38 35 25 20 16 13 12 13 11 8 6 4 1
9 11 10 9 10 10 8 14 15 25 24 19 23 24 28 29 33 34 37 40 39 39 38 38 37 35 34 30 30 30 22 20 19 16 15 13 12 11 8 3 3 4 3
13 12 12 14 12 10 5 9 13 17 20 30 28 31 33 33 36 36 32 30 32 34 33 32 28 22 20 17 13 13 15 16 16 17 14 11 8 5 4 3 2 4 7
13 13 14 14 13 10 6 4 6 8 10 25 33 33 27 26 27 30 31 31 29 30 27 24 24 22 18 18 17 19 19 18 17 14 12 9 6 4 4 5 5 5 8
13 11 11 13 14 12 7 2 3 6 11 10 17 23 26 27 24 24 22 25 27 27 29 28 27 27 27 24 21 20 17 16 14 13 9 6 7 9 9 11 11 11 12
11 10 11 12 17 17 14 8 4 2 8 12 14 15 19 20 21 21 21 22 25 27 32 34 33 31 29 24 19 16 14 11 10 9 10 9 7 5 5 5 6 8 9
9 10 13 14 19 20 24 26 16 5 9 16 20 23 26 28 28 30 31 23 22 21 23 29 25 27 26 21 16 12 11 10 10 7 6 6 5 4 4 4 6 7 10

GFSMW_850_spd_096.txt.gz
Wind_Speed
27 32 38 38 34 31 30 27 22 18 16 16 22 22 23 26 26 26 29 33 35 36 39 45 45 47 46 44 45 47 38 32 34 27 20 15 11 11 11 12 15 15 17
23 35 43 40 37 34 32 27 22 18 15 15 18 20 23 25 28 30 28 29 39 45 46 50 49 52 48 45 43 46 39 34 36 33 26 21 19 17 15 15 16 16 15
28 41 46 43 40 37 33 28 23 19 16 16 17 20 20 20 21 23 29 37 34 41 47 51 54 55 49 46 43 42 39 37 33 30 30 15 12 23 21 21 19 19 20
27 45 50 47 43 39 33 27 23 20 18 18 20 21 21 22 22 22 24 29 34 38 47 53 55 57 48 46 43 40 40 37 36 33 27 19 15 18 15 27 24 23 23
28 43 54 50 45 39 34 29 24 21 18 19 19 19 19 21 19 23 24 29 37 43 47 51 60 58 50 43 41 41 37 36 33 34 33 25 15 19 16 18 29 29 27
23 39 53 52 46 39 33 30 26 21 18 18 20 20 22 22 23 27 29 28 36 42 50 57 61 57 49 46 39 38 40 36 32 35 27 30 25 21 21 16 15 26 24
24 38 48 53 47 41 36 32 28 23 20 21 23 23 23 24 25 29 30 30 35 37 43 44 47 49 46 46 40 40 35 34 32 33 32 33 28 22 19 19 19 19 18
26 44 53 56 49 42 37 33 30 25 22 22 21 21 25 25 29 32 34 35 32 31 37 42 40 43 46 44 45 38 35 31 27 32 36 35 32 31 30 25 23 22 21
35 47 49 53 49 43 38 34 30 26 24 24 24 24 26 30 34 33 32 32 34 37 40 39 42 47 49 46 45 39 35 29 31 32 30 31 30 30 28 25 25 24 26
35 38 48 50 47 42 37 34 29 26 24 25 28 26 28 32 36 33 29 30 30 35 39 40 38 35 41 43 46 47 36 31 33 33 34 29 33 30 31 32 33 32 32
15 34 46 47 46 44 39 34 32 29 26 27 31 30 30 33 38 32 30 29 30 35 39 38 37 37 38 38 41 45 37 35 38 39 37 39 35 34 31 33 34 35 35
18 26 34 41 44 43 39 36 34 32 27 28 31 33 33 36 37 36 33 32 33 36 38 39 38 38 37 39 40 42 40 38 36 37 36 34 34 34 32 33 35 37 36
28 15 33 39 42 42 39 37 34 32 29 27 31 35 36 37 39 39 36 35 35 38 41 41 43 44 43 40 39 39 39 37 36 35 35 37 35 36 36 36 37 39 39
29 10 30 37 42 42 41 37 34 32 30 27 30 37 38 38 38 36 37 38 39 41 42 42 42 49 47 48 47 44 44 43 42 39 37 36 35 35 37 40 41 43 43
35 14 23 30 33 36 37 36 34 32 31 29 30 36 38 38 38 38 37 38 41 42 40 41 45 46 51 52 50 49 48 48 46 42 40 39 38 40 41 44 45 45 45
25 16 14 17 22 30 34 35 34 33 31 31 32 30 35 39 40 39 39 38 40 42 42 41 42 47 49 50 52 50 51 48 45 44 44 42 44 44 47 48 47 47 47
23 24 27 20 10 12 16 25 29 30 32 33 31 31 33 36 38 41 40 41 42 40 43 42 42 44 45 46 46 49 51 52 51 52 52 49 49 52 48 46 47 46 45
20 20 19 18 16 13 9 16 24 23 30 34 34 32 31 35 37 37 40 42 40 41 41 42 42 41 40 41 42 44 47 51 55 54 55 54 52 51 49 48 44 40 38
17 19 18 17 12 11 9 5 10 24 26 32 34 35 33 34 36 39 39 37 40 41 41 39 37 40 41 39 38 38 42 47 49 49 51 53 49 43 43 40 35 27 20
18 18 18 17 18 17 13 8 3 4 21 27 33 31 33 37 39 36 37 37 37 39 41 41 42 41 42 42 40 39 41 45 48 52 47 42 37 32 31 26 23 21 16
18 19 19 20 21 19 18 14 10 6 6 13 23 29 34 36 36 35 38 40 39 40 40 40 40 42 43 42 42 42 42 44 43 39 34 30 28 27 22 17 17 14 11
19 19 19 20 18 16 15 16 16 15 14 12 10 15 29 36 38 36 37 40 41 42 45 45 44 42 39 40 39 42 40 41 40 33 28 26 25 23 20 17 10 11 8
15 15 18 20 22 17 14 15 16 13 13 13 8 7 12 20 30 31 35 38 41 41 39 35 34 30 25 25 27 24 29 32 32 30 28 24 20 15 14 11 10 9 7
12 13 16 20 20 20 18 17 14 11 9 9 7 3 4 7 10 14 20 23 25 32 37 33 30 27 22 19 16 20 22 28 29 25 24 19 14 14 10 10 9 8 4
10 10 14 15 14 15 17 18 17 13 12 12 12 9 5 2 5 8 7 7 10 11 22 24 27 28 31 29 26 26 30 26 22 23 23 21 16 15 11 8 6 4 3
9 9 10 9 10 10 15 15 16 15 14 14 14 16 17 15 11 9 17 22 15 15 16 29 32 35 38 34 31 29 25 24 21 19 17 16 13 10 8 7 5 3 3

GFSMW_850_spd_102.txt.gz
Wind_Speed
30 31 32 31 28 25 31 40 44 42 35 32 29 28 29 28 25 24 25 27 27 26 30 23 25 41 50 50 47 46 41 35 31 33 30 26 22 18 18 19 19 18 18
32 33 32 32 30 23 30 37 44 42 38 34 29 28 27 31 29 27 28 29 25 27 27 23 20 36 40 40 40 45 45 41 35 39 34 24 21 21 19 20 20 19 20
30 33 31 30 28 26 31 36 45 43 40 34 30 26 25 28 28 29 29 28 25 24 27 31 33 41 41 45 46 46 49 45 40 40 34 18 12 23 21 22 22 21 21
34 34 29 27 30 29 32 37 42 43 41 35 30 27 26 26 28 28 28 26 26 24 30 34 38 40 40 47 48 46 50 46 46 41 30 25 23 24 16 24 23 21 21
29 29 29 27 30 31 33 37 40 44 40 33 29 25 24 23 23 25 28 26 24 14 38 31 36 40 42 47 47 50 54 49 47 46 32 23 14 26 12 21 29 26 24
33 33 30 30 32 30 33 37 42 43 38 31 28 25 22 22 22 22 25 26 30 30 21 31 33 43 46 46 47 51 52 50 48 45 34 29 21 21 20 11 13 24 23
31 38 35 28 32 32 33 40 43 43 37 32 27 24 22 20 20 19 20 21 23 26 30 26 38 39 49 51 46 48 50 44 45 44 37 30 31 19 16 11 9 15 18
38 42 39 32 36 36 35 41 44 43 39 33 27 24 21 19 16 16 16 16 19 23 25 27 31 37 50 54 54 49 52 42 40 38 36 35 27 36 25 24 24 17 10
42 44 46 33 31 41 39 39 45 44 40 32 26 23 21 21 19 18 17 17 15 12 16 21 26 35 38 49 51 56 53 46 38 34 41 38 34 31 26 23 27 21 17
46 47 42 32 26 34 33 33 42 45 39 30 26 23 22 21 19 18 17 16 10 6 11 17 26 34 41 47 51 52 50 47 44 40 39 35 32 32 28 26 27 24 25
50 47 37 31 25 26 30 31 40 43 37 29 25 24 23 22 22 20 19 16 12 8 9 14 20 30 37 42 50 50 47 47 44 40 40 36 29 31 27 28 30 28 26
43 42 40 23 23 24 28 32 38 41 34 28 24 25 24 23 24 23 21 19 15 15 15 18 23 28 31 44 50 44 45 44 46 39 39 39 31 31 31 31 31 32 31
39 42 41 11 20 19 26 32 36 35 29 26 24 26 25 25 24 24 24 21 20 19 21 21 25 31 36 39 43 50 48 46 48 44 39 39 35 31 28 31 34 34 32
26 32 33 3 11 17 21 24 28 32 29 24 23 24 26 23 23 23 24 25 23 20 20 21 25 30 35 41 42 46 41 46 48 47 45 47 41 37 30 30 34 39 35
22 29 28 24 2 10 18 22 28 30 27 25 23 20 22 21 22 22 23 24 26 24 21 20 20 24 30 32 35 41 44 44 45 48 50 49 46 46 41 35 33 33 35
18 21 22 21 16 9 10 12 19 25 25 22 20 17 16 22 22 22 22 23 25 26 25 25 24 24 28 31 32 35 37 41 42 46 45 47 46 43 39 36 37 39 40
19 21 24 25 21 12 4 8 12 14 15 17 20 19 18 17 21 23 23 24 26 27 29 29 29 30 30 29 32 34 35 35 39 41 44 43 42 41 40 42 43 44 46
20 22 22 18 17 17 9 2 8 7 8 6 12 13 17 19 19 20 24 26 27 29 29 30 30 32 34 34 35 36 40 41 42 44 45 46 45 45 46 47 47 45 46
15 16 17 17 16 15 11 7 14 16 15 14 14 15 19 20 21 24 24 24 26 28 28 29 30 32 33 34 35 37 42 44 46 45 46 48 50 49 48 47 46 47 47
17 16 14 14 13 16 11 15 15 12 11 11 14 17 19 20 22 24 24 27 29 27 25 24 26 28 31 33 34 35 37 42 44 46 48 50 50 50 50 49 49 46 37
17 15 15 19 18 17 17 16 13 12 7 2 3 8 13 17 21 22 24 25 24 27 30 32 32 31 34 35 35 34 35 41 45 48 50 50 49 47 43 40 36 30 24
16 19 20 23 22 20 19 19 19 17 12 8 5 3 4 7 11 15 19 26 28 29 34 34 34 33 34 36 39 41 40 38 32 33 34 30 32 28 22 21 18 21 20
15 16 19 20 22 22 21 22 21 17 14 12 11 8 6 3 3 3 6 13 22 27 29 26 24 20 19 19 21 21 17 14 18 23 15 17 16 19 21 20 22 21 19
14 13 15 18 22 22 22 22 20 19 15 13 14 13 11 10 8 6 4 4 4 5 8 8 3 2 6 5 5 3 4 8 18 25 25 25 27 26 27 24 20 17 13
14 15 16 16 18 18 19 19 19 18 16 17 18 17 17 17 17 15 14 11 11 8 10 12 12 13 17 15 12 13 20 24 27 30 31 30 25 22 19 17 16 10 8
14 14 15 14 15 14 14 15 14 14 14 17 19 18 18 20 22 22 22 22 19 18 18 18 17 23 21 20 20 22 26 28 27 27 26 25 22 20 15 13 11 9 9

GFSMW_850_spd_105.txt.gz
Wind_Speed
20 18 17 19 22 23 24 23 29 34 42 43 39 36 33 29 27 26 24 23 24 25 28 27 27 26 27 40 42 45 44 40 37 37 30 26 24 20 19 20 20 21 22
15 15 19 19 21 22 24 24 26 30 39 44 41 38 33 28 26 26 23 24 24 24 28 25 27 27 30 45 46 48 47 41 38 37 32 22 22 21 22 22 22 23 21
10 18 21 21 19 21 25 25 23 29 34 43 42 38 31 28 26 28 26 25 26 26 29 24 28 25 30 48 58 54 50 46 39 36 29 14 11 19 23 26 23 25 25
10 17 22 24 22 21 22 26 25 28 33 43 43 39 33 29 27 25 29 28 30 29 28 23 30 28 31 44 53 51 46 46 41 33 28 29 28 18 13 25 27 26 25
15 18 21 22 25 22 21 26 25 26 33 41 43 37 32 27 24 23 26 29 29 27 22 27 22 33 39 41 42 44 44 42 42 42 37 28 22 27 18 16 21 27 27
15 20 24 23 25 23 21 25 26 27 34 40 42 35 30 26 24 23 25 27 27 28 32 22 28 25 41 44 45 45 50 49 46 49 45 37 31 29 17 14 25 29 28
17 21 24 28 25 27 25 25 26 30 35 40 39 35 28 24 22 21 22 26 30 31 22 21 32 27 40 43 45 44 46 48 46 49 44 37 30 27 19 15 9 19 26
15 20 25 28 28 31 24 26 28 31 36 39 39 32 26 23 22 18 19 21 27 30 31 26 29 27 34 45 48 49 52 49 47 47 46 41 35 27 29 17 13 11 10
22 25 24 29 33 30 24 26 29 33 35 39 38 31 25 22 21 16 17 16 17 20 26 29 31 27 27 47 46 51 49 47 46 47 47 40 34 34 29 34 23 23 18
23 29 24 34 40 31 22 24 28 32 33 38 35 31 22 21 19 17 19 18 16 18 21 26 28 27 31 41 49 51 47 47 48 47 47 40 36 25 30 38 36 29 27
24 30 28 48 43 29 19 23 28 31 33 37 36 29 22 21 20 19 19 18 16 14 16 18 19 22 31 36 45 49 57 53 51 52 48 44 34 34 35 34 33 29 31
24 30 36 52 41 13 17 23 26 28 34 35 34 26 22 22 22 21 20 18 16 11 11 15 16 16 21 28 37 45 48 57 53 50 49 49 39 38 35 37 36 33 31
24 37 40 47 36 9 16 21 24 30 32 31 30 24 23 23 22 22 21 18 16 13 11 11 14 14 16 23 33 38 42 53 52 47 53 49 39 42 34 30 31 31 32
21 30 38 43 39 11 17 18 23 27 29 27 25 21 22 22 21 21 21 20 19 18 15 14 14 16 17 22 29 35 35 37 47 51 50 45 41 44 41 36 32 29 32
19 25 29 34 31 11 5 9 19 23 25 23 20 18 19 21 20 20 21 21 22 20 19 18 18 17 21 18 32 36 41 44 46 49 43 46 44 39 41 40 38 36 30
20 18 13 16 24 18 6 11 15 21 20 18 15 11 10 19 20 19 19 21 22 24 22 21 19 19 22 26 29 35 43 45 45 44 43 44 44 43 42 45 42 39 38
20 24 25 27 24 19 10 10 16 16 16 12 10 9 7 7 16 18 19 20 21 22 25 24 22 22 20 17 22 27 33 38 43 45 41 42 47 48 49 48 47 45 41
19 22 23 22 24 21 16 10 15 11 11 10 6 2 7 7 8 10 19 19 19 21 22 24 24 24 24 22 22 22 27 30 32 34 35 35 39 37 42 42 46 45 44
16 16 16 15 14 19 22 16 18 20 17 16 7 16 13 13 14 15 13 14 19 20 23 23 23 25 25 23 24 26 29 31 33 33 35 35 36 38 39 41 43 44 46
15 16 16 14 15 17 18 15 20 15 13 14 14 12 14 15 16 18 20 16 17 20 18 23 26 27 26 27 26 26 29 32 35 38 39 40 41 42 42 43 46 48 48
15 16 21 21 18 15 13 17 20 18 13 8 4 3 7 10 12 14 17 21 23 24 27 28 28 28 29 29 29 29 32 34 38 39 39 40 42 44 42 43 43 43 39
17 18 21 24 23 22 21 22 20 17 13 9 5 2 2 5 7 9 12 14 21 24 27 27 28 26 25 26 29 29 30 34 35 32 29 30 34 31 26 24 22 20 21
16 17 21 23 24 22 23 23 22 18 16 14 12 9 5 3 1 1 3 5 10 16 18 16 15 11 8 9 9 12 13 10 16 21 20 16 11 11 13 10 16 20 19
16 15 17 21 22 22 21 20 20 19 18 19 17 16 14 12 11 10 9 8 8 9 10 9 9 9 8 8 5 5 7 7 8 15 16 16 18 20 26 27 23 19 16
16 16 17 18 18 17 18 20 20 19 20 19 19 18 19 19 19 18 17 15 16 11 12 13 13 12 13 13 12 11 14 20 23 24 26 28 30 29 25 22 20 16 12
14 15 17 16 18 17 17 17 17 17 17 19 19 18 19 20 23 24 26 25 21 19 18 16 14 21 20 15 13 16 20 22 24 26 27 27 25 23 20 16 14 12 12